This is the latest recevied weather packets stored in our database for station/object ON5MM-5. If no packets are shown the sender has not sent any weather packets the latest 10 day(s).
| Time | Temp. | Humidity | Pressure | Rain* | Wind** | Luminosity | Snow |
|---|---|---|---|---|---|---|---|
| 1777599602 | 11.67° C | 30% | 1025.9 hPa | 0 mm | 3.58 m/s, ° | - | - |
| 1777599303 | 11.67° C | 30% | 1025.9 hPa | 0 mm | 3.13 m/s, ° | - | - |
| 1777599002 | 11.67° C | 30% | 1026 hPa | 0 mm | 3.13 m/s, ° | - | - |
| 1777598703 | 11.67° C | 30% | 1026 hPa | 0 mm | 3.13 m/s, ° | - | - |
| 1777598403 | 11.67° C | 30% | 1026.1 hPa | 0 mm | 3.58 m/s, ° | - | - |
| 1777598103 | 11.67° C | 31% | 1026 hPa | 0 mm | 2.68 m/s, ° | - | - |
| 1777597802 | 11.67° C | 31% | 1026.2 hPa | 0 mm | 3.13 m/s, ° | - | - |
| 1777597503 | 11.67° C | 31% | 1026.2 hPa | 0 mm | 2.68 m/s, ° | - | - |
| 1777597203 | 11.67° C | 31% | 1026.2 hPa | 0 mm | 3.13 m/s, ° | - | - |
| 1777596903 | 11.67° C | 31% | 1026.2 hPa | 0 mm | 3.58 m/s, ° | - | - |
| 1777596602 | 11.67° C | 31% | 1026.3 hPa | 0 mm | 3.13 m/s, ° | - | - |
| 1777596302 | 11.67° C | 31% | 1026.3 hPa | 0 mm | 2.68 m/s, ° | - | - |
| 1777596002 | 11.67° C | 32% | 1026.3 hPa | 0 mm | 2.24 m/s, ° | - | - |
| 1777595703 | 11.67° C | 31% | 1026.3 hPa | 0 mm | 2.68 m/s, ° | - | - |
| 1777595402 | 11.67° C | 32% | 1026.4 hPa | 0 mm | 2.24 m/s, ° | - | - |
| 1777595103 | 11.67° C | 32% | 1026.3 hPa | 0 mm | 2.24 m/s, ° | - | - |
| 1777594803 | 11.67° C | 32% | 1026.3 hPa | 0 mm | 2.24 m/s, ° | - | - |
| 1777594502 | 11.67° C | 32% | 1026.3 hPa | 0 mm | 2.68 m/s, ° | - | - |
| 1777594202 | 11.67° C | 32% | 1026.3 hPa | 0 mm | 2.68 m/s, ° | - | - |
| 1777593902 | 11.67° C | 32% | 1026.3 hPa | 0 mm | 2.24 m/s, ° | - | - |
| 1777593602 | 11.67° C | 32% | 1026.3 hPa | 0 mm | 2.68 m/s, ° | - | - |
| 1777593302 | 11.67° C | 32% | 1026.3 hPa | 0 mm | 2.24 m/s, ° | - | - |
| 1777593003 | 11.67° C | 32% | 1026.3 hPa | 0 mm | 2.68 m/s, ° | - | - |
| 1777592702 | 11.67° C | 33% | 1026.3 hPa | 0 mm | 2.24 m/s, ° | - | - |
| 1777592402 | 11.11° C | 33% | 1026.5 hPa | 0 mm | 2.24 m/s, ° | - | - |
* Rain latest hour (hover to see other rain measurements)
** Current wind speed in m/s (hover to see current wind gust speed)